Hourly Weather Bolshie Picherki

Today, 20 June, Sunday

Time Temperature Precipitation Wind Pressure Humidity
00:00 +17°C° 0 mm 3 mps 757 mmHg 90%
01:00 +17°C° 0 mm 3 mps 757 mmHg 91%
02:00 +17°C° 0 mm 3 mps 757 mmHg 92%
03:00 +17°C° 0 mm 3 mps 757 mmHg 93%
04:00 +18°C° 0 mm 3 mps 757 mmHg 89%
05:00 +19°C° 0 mm 3 mps 757 mmHg 85%
06:00 +21°C° 0 mm 3 mps 757 mmHg 81%
07:00 +22°C° 0 mm 3 mps 757 mmHg 76%
08:00 +25°C° 0 mm 3 mps 757 mmHg 71%
09:00 +27°C° 0 mm 4 mps 757 mmHg 65%
10:00 +28°C° 0 mm 4 mps 757 mmHg 61%
11:00 +29°C° 0 mm 4 mps 757 mmHg 58%
12:00 +30°C° 0 mm 4 mps 757 mmHg 54%
13:00 +30°C° 0 mm 4 mps 757 mmHg 53%
14:00 +30°C° 0 mm 4 mps 757 mmHg 52%
15:00 +32°C° 0 mm 4 mps 756 mmHg 51%
16:00 +30°C° 0 mm 4 mps 756 mmHg 57%
17:00 +29°C° 0 mm 3 mps 756 mmHg 64%
18:00 +28°C° 0 mm 3 mps 756 mmHg 70%
19:00 +27°C° 0 mm 2 mps 756 mmHg 75%
20:00 +25°C° 0 mm 2 mps 756 mmHg 80%
21:00 +23°C° 0 mm 1 mps 757 mmHg 85%
22:00 +23°C° 0 mm 1 mps 757 mmHg 85%
23:00 +22°C° 0 mm 1 mps 757 mmHg 86%

Tomorrow, 21 June, Monday

Time Temperature Precipitation Wind Pressure Humidity
00:00 +20°C° 0 mm 0 mps 757 mmHg 86%
01:00 +20°C° 0 mm 0 mps 757 mmHg 87%
02:00 +19°C° 0 mm 0 mps 757 mmHg 87%
03:00 +19°C° 0 mm 0 mps 757 mmHg 88%
04:00 +22°C° 0.1 mm 1 mps 758 mmHg 85%
05:00 +23°C° 0.1 mm 1 mps 758 mmHg 83%
06:00 +24°C° 0.1 mm 1 mps 758 mmHg 80%
07:00 +25°C° 0.2 mm 2 mps 758 mmHg 76%
08:00 +26°C° 0.2 mm 2 mps 758 mmHg 71%
09:00 +28°C° 0.2 mm 2 mps 758 mmHg 67%
10:00 +29°C° 0.5 mm 2 mps 758 mmHg 63%
11:00 +29°C° 0.5 mm 2 mps 758 mmHg 59%
12:00 +30°C° 0.5 mm 2 mps 758 mmHg 55%
13:00 +30°C° 0.1 mm 2 mps 757 mmHg 54%
14:00 +30°C° 0.1 mm 2 mps 757 mmHg 54%
15:00 +31°C° 0.1 mm 2 mps 757 mmHg 53%
16:00 +30°C° 0 mm 2 mps 757 mmHg 58%
17:00 +30°C° 0 mm 2 mps 757 mmHg 63%
18:00 +29°C° 0 mm 1 mps 756 mmHg 68%
19:00 +27°C° 0 mm 1 mps 757 mmHg 71%
20:00 +26°C° 0 mm 1 mps 757 mmHg 75%
21:00 +24°C° 0 mm 1 mps 757 mmHg 79%
22:00 +24°C° 0 mm 1 mps 757 mmHg 79%
23:00 +23°C° 0 mm 1 mps 757 mmHg 80%

Day after tomorrow, 22 June, Tuesday

Time Temperature Precipitation Wind Pressure Humidity
00:00 +23°C° 0 mm 1 mps 757 mmHg 81%
01:00 +22°C° 0 mm 1 mps 757 mmHg 82%
02:00 +20°C° 0 mm 0 mps 757 mmHg 82%
03:00 +20°C° 0 mm 0 mps 757 mmHg 83%
04:00 +21°C° 0 mm 0 mps 757 mmHg 80%
05:00 +24°C° 0 mm 1 mps 758 mmHg 76%
06:00 +25°C° 0 mm 1 mps 758 mmHg 73%
07:00 +27°C° 0 mm 1 mps 758 mmHg 69%
08:00 +28°C° 0 mm 2 mps 758 mmHg 65%
09:00 +29°C° 0 mm 2 mps 758 mmHg 61%
10:00 +30°C° 0 mm 2 mps 758 mmHg 57%
11:00 +31°C° 0 mm 2 mps 758 mmHg 54%
12:00 +33°C° 0 mm 3 mps 758 mmHg 50%
13:00 +33°C° 0 mm 3 mps 758 mmHg 49%
14:00 +33°C° 0 mm 3 mps 757 mmHg 47%
15:00 +33°C° 0 mm 3 mps 757 mmHg 46%
16:00 +31°C° 0 mm 3 mps 757 mmHg 52%
17:00 +30°C° 0 mm 2 mps 757 mmHg 58%
18:00 +29°C° 0 mm 2 mps 757 mmHg 64%
19:00 +28°C° 0 mm 2 mps 757 mmHg 66%
20:00 +27°C° 0 mm 2 mps 757 mmHg 67%
21:00 +25°C° 0 mm 1 mps 757 mmHg 68%
22:00 +24°C° 0 mm 1 mps 757 mmHg 71%
23:00 +24°C° 0 mm 1 mps 757 mmHg 73%

23 June, Wednesday

Time Temperature Precipitation Wind Pressure Humidity
00:00 +23°C° 0 mm 1 mps 757 mmHg 75%
01:00 +23°C° 0 mm 1 mps 757 mmHg 76%
02:00 +22°C° 0 mm 1 mps 757 mmHg 78%
03:00 +22°C° 0 mm 1 mps 757 mmHg 79%
04:00 +23°C° 0 mm 1 mps 757 mmHg 76%
05:00 +25°C° 0 mm 1 mps 757 mmHg 74%
06:00 +26°C° 0 mm 1 mps 757 mmHg 71%
07:00 +27°C° 0 mm 2 mps 757 mmHg 67%
08:00 +29°C° 0 mm 2 mps 757 mmHg 64%
09:00 +30°C° 0 mm 3 mps 757 mmHg 60%
10:00 +31°C° 0 mm 3 mps 757 mmHg 56%
11:00 +33°C° 0 mm 3 mps 757 mmHg 52%
12:00 +33°C° 0 mm 3 mps 757 mmHg 48%
13:00 +34°C° 0 mm 3 mps 757 mmHg 46%
14:00 +34°C° 0 mm 2 mps 757 mmHg 44%
15:00 +34°C° 0 mm 2 mps 756 mmHg 41%
16:00 +32°C° 0.2 mm 2 mps 756 mmHg 50%
17:00 +30°C° 0.2 mm 3 mps 756 mmHg 59%
18:00 +28°C° 0.2 mm 3 mps 756 mmHg 68%
19:00 +27°C° 0.3 mm 2 mps 756 mmHg 71%
20:00 +25°C° 0.3 mm 2 mps 756 mmHg 75%
21:00 +24°C° 0.3 mm 2 mps 756 mmHg 78%
22:00 +24°C° 0 mm 1 mps 756 mmHg 78%
23:00 +23°C° 0 mm 1 mps 756 mmHg 77%

24 June, Thursday

Time Temperature Precipitation Wind Pressure Humidity
00:00 +23°C° 0 mm 1 mps 756 mmHg 76%
01:00 +23°C° 0 mm 1 mps 756 mmHg 78%
02:00 +23°C° 0 mm 1 mps 756 mmHg 80%
03:00 +22°C° 0 mm 1 mps 756 mmHg 82%
04:00 +23°C° 0 mm 1 mps 756 mmHg 80%
05:00 +24°C° 0 mm 1 mps 756 mmHg 78%
06:00 +25°C° 0 mm 1 mps 756 mmHg 76%
07:00 +27°C° 0 mm 2 mps 756 mmHg 70%
08:00 +28°C° 0 mm 2 mps 756 mmHg 65%
09:00 +30°C° 0 mm 3 mps 756 mmHg 59%
10:00 +31°C° 0.1 mm 3 mps 756 mmHg 55%
11:00 +33°C° 0.1 mm 3 mps 756 mmHg 51%
12:00 +33°C° 0.1 mm 3 mps 755 mmHg 48%
13:00 +33°C° 0.1 mm 3 mps 755 mmHg 51%
14:00 +31°C° 0.1 mm 3 mps 755 mmHg 55%
15:00 +30°C° 0.1 mm 2 mps 755 mmHg 59%
16:00 +29°C° 1.5 mm 2 mps 755 mmHg 66%
17:00 +27°C° 1.5 mm 2 mps 754 mmHg 73%
18:00 +25°C° 1.5 mm 2 mps 754 mmHg 81%
19:00 +24°C° 0.9 mm 2 mps 754 mmHg 83%
20:00 +23°C° 0.9 mm 2 mps 754 mmHg 85%
21:00 +21°C° 0.9 mm 2 mps 754 mmHg 88%
22:00 +21°C° 0.2 mm 2 mps 754 mmHg 88%
23:00 +20°C° 0.2 mm 2 mps 754 mmHg 89%

25 June, Friday

Time Temperature Precipitation Wind Pressure Humidity
00:00 +20°C° 0.2 mm 2 mps 754 mmHg 90%
01:00 +21°C° 0 mm 1 mps 754 mmHg 89%
02:00 +20°C° 0 mm 1 mps 754 mmHg 89%
03:00 +20°C° 0 mm 1 mps 754 mmHg 89%
04:00 +21°C° 0 mm 1 mps 754 mmHg 87%
05:00 +23°C° 0 mm 2 mps 754 mmHg 84%
06:00 +24°C° 0 mm 2 mps 754 mmHg 82%
07:00 +25°C° 0 mm 2 mps 753 mmHg 77%
08:00 +27°C° 0 mm 2 mps 753 mmHg 72%
09:00 +29°C° 0 mm 2 mps 753 mmHg 67%
10:00 +30°C° 0 mm 2 mps 753 mmHg 63%
11:00 +31°C° 0 mm 3 mps 753 mmHg 58%
12:00 +33°C° 0 mm 3 mps 753 mmHg 54%
13:00 +33°C° 0 mm 3 mps 752 mmHg 52%
14:00 +34°C° 0 mm 3 mps 752 mmHg 51%
15:00 +34°C° 0 mm 3 mps 752 mmHg 50%
16:00 +33°C° 0.1 mm 3 mps 752 mmHg 56%
17:00 +31°C° 0.1 mm 3 mps 751 mmHg 62%
18:00 +31°C° 0.1 mm 3 mps 751 mmHg 68%
19:00 +29°C° 0.1 mm 2 mps 751 mmHg 72%
20:00 +28°C° 0.1 mm 2 mps 751 mmHg 75%
21:00 +26°C° 0.1 mm 1 mps 751 mmHg 79%
22:00 +25°C° 0.4 mm 1 mps 751 mmHg 82%
23:00 +24°C° 0.4 mm 1 mps 751 mmHg 85%
Show more